Simultaneous Nadir Overpasses (SNOs) Predictions

Prediction of SNOs between GOES-14 and AQUA Satellite Orbit:

Table of predicted SNOs for the next 14.0 days since TLE Epoch: 2/21/2020
Index Date Time (GOES-14) GOES-14 Lat,Lon AQUA Lat,Lon Distance(km) Time Diff (sec)
1 02/23/2020 20:30:16 -0.07,-104.03 -0.03,-103.97 8.23 80
2 02/25/2020 20:18:05 -0.07,-104.03 0.55,-101.00 343.71 80
3 02/26/2020 08:39:21 0.07,-104.21 0.50,-106.17 222.93 80
4 02/28/2020 08:29:51 0.07,-104.21 -0.14,-103.22 113.09 80
5 02/28/2020 20:51:14 -0.07,-104.04 -1.03,-108.40 495.51 80
6 03/01/2020 08:17:42 0.07,-104.21 -0.79,-100.27 449.09 80
7 03/01/2020 20:39:04 -0.08,-104.04 -0.38,-105.45 159.84 80
8 03/03/2020 20:24:14 -0.08,-104.03 0.28,-102.49 175.55 80
9 03/04/2020 08:45:30 0.08,-104.19 0.84,-107.65 393.54 80
10 03/06/2020 08:33:20 0.09,-104.19 0.19,-104.70 58.13 80




NCC Satellite Simultaneous Nadir Overpasses (SNOs) Prediction Service
